Location: Jastrz?bniki
(50.3667°N, 20.3833°E)
Time: 12:31:10
(UTC+00:00)

ATLAS 2AS CENTAUR R/B - Pass Details

Date: 05 August 2024
Orbit: 1022 x 1188 km, 63.7° (Epoch: 09 September)

Event Time Altitude Azimuth Distance (km) Brightness Sun altitude
Exits shadow 00:44:44 27° 209° (SSW) 2,061 3.6 -17.7°
Maximum altitude 00:49:05 76° 129° (SE) 1,167 2.8 -17.4°
Drops below altitude 10° 00:56:08 10° 45° (NE) 2,962 6.3 -16.8°
Sets 00:58:45 0° 44° (NE) 3,898 7.3 -16.6°
